Date String (YYYY-MM-DD hh:mm:ss) UTC,Instrument flags,absolute air pressure of the measurement (hPa),sample flow rate (lpm),inlet stack bypass flow (lpm),air temperature of the measurement (°C),ambient temperature measured by the external sensor (°C),aerosol sample conditioner tube jacket temperature (°C),OPC LED temperature (°C),internal box temperature (°C),relative humidity of the measurement (%),span deviation,mass concentration of particles derived from Lorenz-Mie calculation of OPC scattering (μg/m³),mass concentration of particles derived from Lorenz-Mie calculation of OPC scattering (μg/m³),mass concentration of particles derived from Lorenz-Mie calculation of OPC scattering (μg/m³)
DateTimeUTC,F1_M11,P_M11,Q1_M11,Q2_M11,T1_M11,T2_M11,T3_M11,T4_M11,T5_M11,U1_M11,ZSPAN_M11,X0_M11,X2_M11,X1_M11
2024-02-25 04:00:00,SystemResetWarning,0825.0,5.00,000.00,022.2,021.3,000.0,030.5,023.9,05.9,0000.0,0012.40,0003.60,0001.26
2024-02-25 04:01:00,SystemResetWarning,0824.9,5.00,000.00,022.2,021.3,000.0,030.5,023.9,06.0,0000.0,0011.34,0003.58,0001.26
2024-02-25 04:02:00,SystemResetWarning,0824.9,4.99,000.00,022.2,021.3,000.0,030.5,023.9,05.9,0000.0,0011.55,0003.67,0001.27
2024-02-25 04:03:00,SystemResetWarning,0824.9,5.01,000.00,022.2,021.3,000.0,030.5,023.9,06.0,0000.0,0011.14,0003.77,0001.29
2024-02-25 04:04:00,SystemResetWarning,0824.9,5.00,000.00,022.1,021.3,000.0,030.5,023.9,06.0,0000.0,0010.50,0003.76,0001.31
2024-02-25 04:05:00,SystemResetWarning,0824.9,5.00,000.00,022.1,021.3,000.0,030.5,023.9,05.9,0000.0,0011.01,0003.71,0001.31
2024-02-25 04:06:00,SystemResetWarning,0824.8,5.00,000.00,022.1,021.3,000.0,030.5,023.9,05.9,0000.0,0010.94,0003.68,0001.32
2024-02-25 04:07:00,SystemResetWarning,0825.0,5.00,000.00,022.1,021.3,000.0,030.5,023.9,05.9,0000.0,0011.19,0003.65,0001.32
2024-02-25 04:08:00,SystemResetWarning,0825.0,5.00,000.00,022.1,021.3,000.0,030.5,023.9,06.0,0000.0,0011.57,0003.70,0001.33
2024-02-25 04:09:00,SystemResetWarning,0824.9,5.00,000.00,022.1,021.3,000.0,030.5,023.8,06.0,0000.0,0011.99,0003.76,0001.35
2024-02-25 04:10:00,SystemResetWarning,0824.9,5.01,000.00,022.1,021.3,000.0,030.5,023.8,06.1,0000.0,0011.92,0003.72,0001.34
2024-02-25 04:11:00,SystemResetWarning,0824.9,5.00,000.00,022.1,021.2,000.0,030.4,023.8,06.1,0000.0,0011.80,0003.70,0001.33
2024-02-25 04:12:00,SystemResetWarning,0825.0,5.00,000.00,022.1,021.2,000.0,030.4,023.8,06.1,0000.0,0011.65,0003.69,0001.32
2024-02-25 04:13:00,SystemResetWarning,0825.0,5.00,000.00,022.1,021.2,000.0,030.4,023.8,06.0,0000.0,0011.43,0003.62,0001.33
2024-02-25 04:14:00,SystemResetWarning,0824.9,5.00,000.00,022.1,021.2,000.0,030.4,023.8,06.0,0000.0,0011.05,0003.53,0001.32
2024-02-25 04:15:00,SystemResetWarning,0824.9,5.00,000.00,022.1,021.2,000.0,030.4,023.8,06.0,0000.0,0011.09,0003.45,0001.30
2024-02-25 04:16:00,SystemResetWarning,0824.9,5.00,000.00,022.1,021.2,000.0,030.4,023.7,06.0,0000.0,0010.94,0003.46,0001.31
2024-02-25 04:17:00,SystemResetWarning,0824.9,5.00,000.00,022.1,021.2,000.0,030.4,023.7,06.0,0000.0,0011.04,0003.43,0001.31
2024-02-25 04:18:00,SystemResetWarning,0824.9,5.00,000.00,022.1,021.2,000.0,030.4,023.7,06.1,0000.0,0011.19,0003.45,0001.31
2024-02-25 04:19:00,SystemResetWarning,0824.9,5.01,000.00,022.1,021.2,000.0,030.4,023.7,06.1,0000.0,0011.49,0003.44,0001.31
2024-02-25 04:20:00,SystemResetWarning,0824.9,5.01,000.00,022.1,021.2,000.0,030.4,023.7,06.0,0000.0,0011.67,0003.35,0001.30
2024-02-25 04:21:00,SystemResetWarning,0825.0,4.98,000.00,022.0,021.2,000.0,030.4,023.7,06.1,0000.0,0011.81,0003.33,0001.31
2024-02-25 04:22:00,SystemResetWarning,0825.0,5.00,000.00,022.0,021.2,000.0,030.4,023.7,06.0,0000.0,0011.65,0003.29,0001.32
2024-02-25 04:23:00,SystemResetWarning,0824.9,5.01,000.00,022.0,021.2,000.0,030.4,023.7,06.2,0000.0,0012.20,0003.30,0001.32
2024-02-25 04:24:00,SystemResetWarning,0824.9,5.01,000.00,022.0,021.2,000.0,030.4,023.7,06.1,0000.0,0012.55,0003.40,0001.33
2024-02-25 04:25:00,SystemResetWarning,0824.9,5.00,000.00,022.0,021.2,000.0,030.4,023.8,06.1,0000.0,0012.93,0003.44,0001.34
2024-02-25 04:26:00,SystemResetWarning,0824.9,5.00,000.00,022.0,021.2,000.0,030.4,023.7,06.1,0000.0,0012.53,0003.40,0001.35
2024-02-25 04:27:00,SystemResetWarning,0824.8,5.00,000.00,022.0,021.2,000.0,030.4,023.7,06.1,0000.0,0012.65,0003.42,0001.35
2024-02-25 04:28:00,SystemResetWarning,0824.9,5.00,000.00,022.0,021.2,000.0,030.3,023.7,06.1,0000.0,0012.89,0003.44,0001.35
2024-02-25 04:29:00,SystemResetWarning,0824.8,4.99,000.00,022.0,021.2,000.0,030.3,023.7,06.1,0000.0,0012.70,0003.42,0001.35
2024-02-25 04:30:00,SystemResetWarning,0824.8,5.00,000.00,022.0,021.1,000.0,030.3,023.7,06.0,0000.0,0012.60,0003.38,0001.35
2024-02-25 04:31:00,SystemResetWarning,0824.8,4.99,000.00,022.0,021.1,000.0,030.3,023.7,06.1,0000.0,0012.54,0003.41,0001.35
2024-02-25 04:32:00,SystemResetWarning,0824.9,5.00,000.00,022.0,021.1,000.0,030.3,023.7,06.0,0000.0,0012.28,0003.44,0001.35
2024-02-25 04:33:00,SystemResetWarning,0824.8,5.01,000.00,022.0,021.1,000.0,030.3,023.7,06.0,0000.0,0012.19,0003.47,0001.36
2024-02-25 04:34:00,SystemResetWarning,0824.8,5.01,000.00,022.0,021.1,000.0,030.3,023.7,06.1,0000.0,0011.77,0003.44,0001.36
2024-02-25 04:35:00,SystemResetWarning,0824.7,4.99,000.00,022.0,021.1,000.0,030.3,023.7,06.0,0000.0,0011.63,0003.34,0001.34
2024-02-25 04:36:00,SystemResetWarning,0824.7,5.00,000.00,022.0,021.1,000.0,030.3,023.7,06.1,0000.0,0011.40,0003.32,0001.35
2024-02-25 04:37:00,SystemResetWarning,0824.7,5.00,000.00,022.0,021.1,000.0,030.3,023.7,06.0,0000.0,0011.23,0003.33,0001.34
2024-02-25 04:38:00,SystemResetWarning,0824.7,4.99,000.00,022.0,021.1,000.0,030.3,023.6,06.0,0000.0,0011.30,0003.31,0001.34
2024-02-25 04:39:00,SystemResetWarning,0824.7,5.01,000.00,022.0,021.1,000.0,030.3,023.7,06.0,0000.0,0011.17,0003.31,0001.34
2024-02-25 04:40:00,SystemResetWarning,0824.7,5.01,000.00,022.0,021.1,000.0,030.3,023.7,06.0,0000.0,0011.58,0003.36,0001.36
2024-02-25 04:41:00,SystemResetWarning,0824.6,5.00,000.00,022.0,021.1,000.0,030.3,023.7,06.0,0000.0,0011.26,0003.39,0001.36
2024-02-25 04:42:00,SystemResetWarning,0824.7,4.99,000.00,022.0,021.1,000.0,030.3,023.6,06.0,0000.0,0010.36,0003.38,0001.36
2024-02-25 04:43:00,SystemResetWarning,0824.7,5.00,000.00,022.0,021.1,000.0,030.3,023.6,06.1,0000.0,0010.35,0003.39,0001.34
2024-02-25 04:44:00,SystemResetWarning,0824.8,5.01,000.00,022.0,021.1,000.0,030.3,023.6,06.2,0000.0,0010.86,0003.39,0001.33
2024-02-25 04:45:00,SystemResetWarning,0824.8,5.01,000.00,022.0,021.1,000.0,030.3,023.6,06.2,0000.0,0011.29,0003.43,0001.34
2024-02-25 04:46:00,SystemResetWarning,0824.8,5.00,000.00,022.0,021.1,000.0,030.3,023.7,06.2,0000.0,0011.41,0003.47,0001.34
2024-02-25 04:47:00,SystemResetWarning,0824.8,4.99,000.00,022.0,021.1,000.0,030.3,023.6,06.0,0000.0,0011.88,0003.45,0001.33
2024-02-25 04:48:00,SystemResetWarning,0824.8,4.99,000.00,022.0,021.1,000.0,030.3,023.7,06.0,0000.0,0012.52,0003.48,0001.33
2024-02-25 04:49:00,SystemResetWarning,0824.7,5.00,000.00,022.0,021.1,000.0,030.3,023.7,05.9,0000.0,0012.27,0003.53,0001.34
2024-02-25 04:50:00,SystemResetWarning,0824.7,5.01,000.00,022.0,021.1,000.0,030.3,023.6,05.9,0000.0,0011.94,0003.57,0001.35
2024-02-25 04:51:00,SystemResetWarning,0824.7,5.01,000.00,022.0,021.1,000.0,030.3,023.6,05.9,0000.0,0011.77,0003.59,0001.33
2024-02-25 04:52:00,SystemResetWarning,0824.8,4.99,000.00,022.0,021.1,000.0,030.3,023.6,06.0,0000.0,0012.67,0003.61,0001.32
2024-02-25 04:53:00,SystemResetWarning,0824.7,4.99,000.00,022.0,021.1,000.0,030.3,023.6,06.0,0000.0,0014.16,0003.67,0001.33
2024-02-25 04:54:00,SystemResetWarning,0824.7,5.00,000.00,022.0,021.1,000.0,030.3,023.7,06.0,0000.0,0015.40,0003.68,0001.36
2024-02-25 04:55:00,SystemResetWarning,0824.7,5.00,000.00,022.0,021.1,000.0,030.3,023.7,06.0,0000.0,0015.25,0003.68,0001.37
2024-02-25 04:56:00,SystemResetWarning,0824.7,5.01,000.00,022.0,021.2,000.0,030.3,023.7,06.0,0000.0,0014.50,0003.67,0001.37
2024-02-25 04:57:00,SystemResetWarning,0824.7,5.00,000.00,022.0,021.1,000.0,030.3,023.7,06.1,0000.0,0014.45,0003.68,0001.36
2024-02-25 04:58:00,SystemResetWarning,0824.7,5.00,000.00,022.0,021.1,000.0,030.3,023.6,06.1,0000.0,0014.03,0003.70,0001.37
2024-02-25 04:59:00,SystemResetWarning,0824.6,4.98,000.00,022.0,021.1,000.0,030.3,023.6,06.1,0000.0,0013.37,0003.66,0001.37
